TimeEDT,TemperatureF,Dew PointF,Humidity,Sea Level PressureIn,VisibilityMPH,Wind Direction,Wind SpeedMPH,Gust SpeedMPH,PrecipitationIn,Events,Conditions,WindDirDegrees,DateUTC
12:53 AM,73.9,70.0,87,29.88,8.0,Calm,Calm,-,N/A,,Clear,0,2013-08-31 04:53:00
1:53 AM,73.0,70.0,90,29.89,7.0,Calm,Calm,-,N/A,,Mostly Cloudy,0,2013-08-31 05:53:00
2:53 AM,73.0,70.0,90,29.89,6.0,Calm,Calm,-,N/A,,Mostly Cloudy,0,2013-08-31 06:53:00
3:53 AM,73.0,70.0,90,29.88,6.0,Calm,Calm,-,N/A,,Partly Cloudy,0,2013-08-31 07:53:00
4:53 AM,73.0,69.1,87,29.88,6.0,Variable,3.5,-,N/A,,Clear,0,2013-08-31 08:53:00
5:53 AM,71.1,69.1,93,29.88,5.0,Variable,3.5,-,N/A,,Clear,0,2013-08-31 09:53:00
6:53 AM,71.1,68.0,90,29.89,6.0,Calm,Calm,-,N/A,,Clear,0,2013-08-31 10:53:00
7:53 AM,72.0,69.1,91,29.90,4.0,Calm,Calm,-,N/A,,Clear,0,2013-08-31 11:53:00
8:53 AM,73.9,70.0,87,29.91,5.0,Calm,Calm,-,N/A,,Partly Cloudy,0,2013-08-31 12:53:00
9:53 AM,77.0,71.1,82,29.91,7.0,Calm,Calm,-,N/A,,Clear,0,2013-08-31 13:53:00
10:53 AM,80.1,73.0,79,29.93,9.0,Calm,Calm,-,N/A,,Mostly Cloudy,0,2013-08-31 14:53:00
11:21 AM,84.2,73.4,70,29.98,10.0,Calm,Calm,-,N/A,Thunderstorm,Thunderstorm,0,2013-08-31 15:21:00
11:50 AM,78.8,73.4,83,30.01,9.0,Variable,3.5,-,N/A,Thunderstorm,Thunderstorm,0,2013-08-31 15:50:00
11:53 AM,75.9,70.0,82,29.96,9.0,Variable,5.8,-,N/A,Thunderstorm,Thunderstorm,0,2013-08-31 15:53:00
12:14 PM,69.8,64.4,83,29.99,10.0,Variable,3.5,-,0.00,Rain-Thunderstorm,Light Thunderstorms and Rain,0,2013-08-31 16:14:00
12:29 PM,68.0,64.4,88,30.01,2.5,Variable,5.8,-,0.02,Rain-Thunderstorm,Thunderstorms and Rain,0,2013-08-31 16:29:00
12:34 PM,68.0,66.2,94,30.02,1.0,Variable,3.5,-,0.08,Rain-Thunderstorm,Heavy Thunderstorms and Rain,0,2013-08-31 16:34:00
12:36 PM,66.2,66.2,100,30.01,0.8,Variable,3.5,-,0.14,Rain-Thunderstorm,Heavy Thunderstorms and Rain,0,2013-08-31 16:36:00
12:44 PM,66.2,66.2,100,30.01,0.5,Calm,Calm,-,0.25,Fog-Rain-Thunderstorm,Heavy Thunderstorms and Rain,0,2013-08-31 16:44:00
12:53 PM,68.0,66.9,96,29.96,0.2,Calm,Calm,-,0.49,Fog-Rain-Thunderstorm,Heavy Thunderstorms and Rain,0,2013-08-31 16:53:00
1:07 PM,68.0,66.2,94,30.00,0.5,Variable,5.8,-,0.09,Fog-Rain-Thunderstorm,Heavy Thunderstorms and Rain,0,2013-08-31 17:07:00
1:17 PM,68.0,66.2,94,29.98,0.2,Variable,4.6,-,0.34,Fog-Rain-Thunderstorm,Thunderstorms and Rain,0,2013-08-31 17:17:00
1:29 PM,68.0,66.2,94,29.97,1.8,Variable,3.5,-,0.35,Rain,Light Rain,0,2013-08-31 17:29:00
1:31 PM,68.0,66.2,94,29.97,4.0,Calm,Calm,-,0.35,Rain,Light Rain,0,2013-08-31 17:31:00
1:53 PM,70.0,68.0,93,29.92,10.0,Calm,Calm,-,0.35,,Partly Cloudy,0,2013-08-31 17:53:00
2:53 PM,75.9,70.0,82,29.88,10.0,Calm,Calm,-,0.00,,Clear,0,2013-08-31 18:53:00
3:14 PM,75.2,69.8,83,29.93,10.0,NNW,3.5,-,N/A,Thunderstorm,Scattered Clouds,340,2013-08-31 19:14:00
3:53 PM,72.0,69.1,91,29.92,10.0,NW,11.5,-,0.00,Rain-Thunderstorm,Light Rain,320,2013-08-31 19:53:00
4:53 PM,70.0,66.9,90,29.84,5.0,Variable,3.5,-,0.02,Rain-Thunderstorm,Light Thunderstorms and Rain,0,2013-08-31 20:53:00
5:13 PM,71.6,66.2,83,29.87,10.0,SW,3.5,-,0.00,,Scattered Clouds,220,2013-08-31 21:13:00
5:53 PM,70.0,64.0,81,29.83,10.0,Calm,Calm,-,0.00,,Clear,0,2013-08-31 21:53:00
6:53 PM,69.1,66.0,90,29.88,10.0,West,6.9,-,N/A,,Clear,280,2013-08-31 22:53:00
7:53 PM,68.0,66.0,93,29.88,10.0,Calm,Calm,-,N/A,,Clear,0,2013-08-31 23:53:00
8:53 PM,70.0,66.0,87,29.88,10.0,Calm,Calm,-,N/A,,Overcast,0,2013-09-01 00:53:00
9:10 PM,69.8,66.2,88,29.93,10.0,Calm,Calm,-,N/A,,Overcast,0,2013-09-01 01:10:00
9:40 PM,69.8,66.2,88,29.95,10.0,Variable,5.8,-,N/A,,Mostly Cloudy,0,2013-09-01 01:40:00
9:53 PM,69.1,66.0,90,29.91,10.0,Calm,Calm,-,N/A,Thunderstorm,Scattered Clouds,0,2013-09-01 01:53:00
10:02 PM,68.0,66.2,94,29.95,2.0,Calm,Calm,-,N/A,,Scattered Clouds,0,2013-09-01 02:02:00
10:05 PM,68.0,66.2,94,29.95,1.5,Calm,Calm,-,N/A,,Scattered Clouds,0,2013-09-01 02:05:00
10:11 PM,68.0,66.2,94,29.95,2.0,Calm,Calm,-,N/A,,Scattered Clouds,0,2013-09-01 02:11:00
10:17 PM,68.0,66.2,94,29.95,1.2,Calm,Calm,-,N/A,,Mostly Cloudy,0,2013-09-01 02:17:00
10:20 PM,68.0,66.2,94,29.96,0.8,Calm,Calm,-,N/A,,Mostly Cloudy,0,2013-09-01 02:20:00
10:29 PM,68.0,66.2,94,29.95,2.0,Calm,Calm,-,N/A,,Scattered Clouds,0,2013-09-01 02:29:00
10:36 PM,68.0,66.2,94,29.95,9.0,Calm,Calm,-,N/A,,Scattered Clouds,0,2013-09-01 02:36:00
10:53 PM,68.0,66.0,93,29.91,9.0,West,3.5,-,N/A,,Clear,260,2013-09-01 02:53:00
11:24 PM,68.0,66.2,94,29.94,3.0,Calm,Calm,-,N/A,,Partly Cloudy,0,2013-09-01 03:24:00
11:33 PM,68.0,66.2,94,29.94,1.5,Calm,Calm,-,N/A,,Scattered Clouds,0,2013-09-01 03:33:00
11:35 PM,68.0,66.2,94,29.94,0.8,Calm,Calm,-,N/A,,Mist,0,2013-09-01 03:35:00
11:48 PM,68.0,66.2,94,29.94,2.0,Calm,Calm,-,N/A,,Mostly Cloudy,0,2013-09-01 03:48:00
11:53 PM,68.0,66.0,93,29.89,2.0,Calm,Calm,-,N/A,,Mostly Cloudy,0,2013-09-01 03:53:00
11:57 PM,66.2,66.2,100,29.93,0.8,Calm,Calm,-,N/A,,Mist,0,2013-09-01 03:57:00